This demonstration page uses our WeatherBlox Daily Observations layout. Learn more.

Left ArrowRight Arrow

40.92501, -98.34201

Hourly Observations for May 24, 2022

Temp ( °F °C ) Dew Point ( °F °C ) Humidity (%) Winds ( mph kmh ) Pressure ( in mb ) Visibility ( mi km ) Precip ( " mm )
12:53 am 00:53 Cloudy 51 10.6 46 7.8 83 83 N 6 9 30.15 1021 10 16 0.00 0.00
1:53 am 01:53 Cloudy 50 10 45 7.2 83 83 N 8 13 30.13 1020 10 16 0.00 0.00
2:53 am 02:53 Cloudy 50 10 44 6.7 80 80 NE 7 11 30.12 1020 10 16 0.00 0.00
3:53 am 03:53 Cloudy 50 10 44 6.7 80 80 NE 6 9 30.10 1019 10 16 0.00 0.00
4:53 am 04:53 Cloudy 50 10 44 6.7 80 80 NE 7 11 30.09 1019 10 16 0.00 0.00
5:53 am 05:53 Cloudy 50 10 43 6.1 77 77 NNE 6 9 30.09 1019 10 16 0.00 0.00
6:53 am 06:53 Cloudy 51 10.6 42 5.6 71 71 ENE 5 7 30.09 1019 10 16 0.00 0.00
7:53 am 07:53 Cloudy 52 11.1 42 5.6 69 69 NE 7 11 30.09 1019 10 16 0.00 0.00
8:53 am 08:53 Cloudy 53 11.7 42 5.6 66 66 NE 9 15 30.08 1019 10 16 0.00 0.00
9:53 am 09:53 Cloudy 55 12.8 42 5.6 62 62 NE 10 17 30.07 1018 10 16 0.00 0.00
10:53 am 10:53 Cloudy 56 13.3 42 5.6 60 60 NE 10 17 30.07 1018 10 16 0.00 0.00
11:53 am 11:53 Mostly Cloudy 58 14.4 43 6.1 58 58 ENE 14 22 30.05 1018 10 16 0.00 0.00
12:53 pm 12:53 Cloudy with Light Rain 55 12.8 47 8.3 74 74 E 15 24 30.04 1017 7 11 0.00 0.00
1:53 pm 13:53 Cloudy with Light Rain 54 12.2 48 8.9 80 80 ENE 13 20 30.03 1017 5 8 0.02 0.51
2:23 pm 14:23 Cloudy with Light Rain 53 11.7 49 9.4 86 86 E 15 24 30.00 1016 3 5 0.04 1.02
2:53 pm 14:53 Cloudy with Light Rain 52 11.1 48 8.9 86 86 ENE 13 20 30.02 1017 3 5 0.10 2.54
3:53 pm 15:53 Cloudy with Light Rain 52 11.1 48 8.9 86 86 NE 17 28 30.01 1016 3 5 0.08 2.03
4:02 pm 16:02 Cloudy with Rain 52 11.1 48 8.9 86 86 ENE 13 20 29.99 1016 3 4 0.02 0.51
4:13 pm 16:13 Cloudy with Rain 52 11.1 48 8.9 86 86 ENE 16 26 29.98 1015 2 3 0.05 1.27
4:26 pm 16:26 Cloudy with Light Rain 51 10.6 48 8.9 89 89 NE 17 28 29.98 1015 3 4 0.08 2.03
4:31 pm 16:31 Cloudy with Light Rain 51 10.6 48 8.9 89 89 NE 17 28 29.98 1015 3 5 0.09 2.29
4:51 pm 16:51 Cloudy with Light Rain 52 11 48 9 88 88 ENE 18 30 29.97 1015 3 5 0.12 3.05
4:53 pm 16:53 Cloudy with Rain 51 10.6 47 8.3 86 86 ENE 16 26 29.99 1016 3 5 0.12 3.05
5:01 pm 17:01 Cloudy with Light Rain 51 10.6 48 8.9 89 89 NE 18 30 29.97 1015 3 5 0.02 0.51
5:12 pm 17:12 Cloudy with Light Rain 51 10.6 48 8.9 89 89 NE 17 28 29.97 1015 4 6 0.03 0.76
5:43 pm 17:43 Cloudy with Light Rain 51 10.6 48 8.9 89 89 NE 21 33 29.97 1015 6 10 0.05 1.27
5:53 pm 17:53 Cloudy with Light Rain 51 10.6 48 8.9 89 89 NE 18 30 29.98 1015 6 10 0.05 1.27
6:01 pm 18:01 Cloudy with Light Rain 51 10.6 48 8.9 89 89 NE 21 33 29.96 1015 8 13 0.00 0.00
6:11 pm 18:11 Cloudy with Light Rain 51 10.6 48 8.9 89 89 NE 20 31 29.96 1015 7 11 0.00 0.00
6:20 pm 18:20 Cloudy with Light Rain 51 10.6 48 8.9 89 89 NE 16 26 29.96 1015 4 6 0.00 0.00
6:27 pm 18:27 Cloudy with Light Rain 51 10.6 48 8.9 89 89 NE 18 30 29.96 1015 3 4 0.01 0.25
6:34 pm 18:34 Cloudy with Light Rain 51 10.6 48 8.9 89 89 NE 20 31 29.96 1015 2 3 0.01 0.25
6:46 pm 18:46 Cloudy with Light Rain 51 10.6 47 8.3 86 86 NE 17 28 29.95 1014 4 6 0.01 0.25
6:53 pm 18:53 Cloudy with Light Rain 51 10.6 48 8.9 89 89 NE 18 30 29.97 1015 5 8 0.02 0.51
7:53 pm 19:53 Cloudy with Light Rain 50 10 47 8.3 89 89 NE 17 28 29.98 1015 3 4 0.04 1.02
8:12 pm 20:12 Cloudy with Light Rain 50 10 47 8.3 89 89 NNE 17 28 29.97 1015 4 6 0.03 0.76
8:53 pm 20:53 Cloudy with Light Rain 50 10 47 8.3 89 89 NNE 20 31 29.96 1015 5 8 0.04 1.02
9:53 pm 21:53 Cloudy with Mist and Fog 50 10 47 8.3 89 89 NE 22 35 29.96 1014 6 10 0.02 0.51
10:53 pm 22:53 Cloudy with Mist and Fog 49 9.4 46 7.8 90 90 NE 16 26 29.96 1015 4 6 0.00 0.00
11:34 pm 23:34 Cloudy with Light Rain 49 9.4 47 8.3 93 93 NNE 16 26 29.94 1014 3 4 0.00 0.00
11:49 pm 23:49 Cloudy with Light Rain 48 9 46 8 94 94 NNE 15 24 29.95 1014 3 4 0.01 0.25
11:53 pm 23:53 Cloudy with Light Rain 49 9.4 47 8.3 93 93 NNE 15 24 29.95 1014 3 4 0.01 0.25

Powered by AerisWeather